Location: *
(58.4167°N, 22.5000°E)
Time: 11:13:54
(UTC+00:00)

CARTOSAT-1 - Pass Details

Date: 22 September 2019
Orbit: 616 x 619 km, 97.8° (Epoch: 14 October)

Event Time Altitude Azimuth Distance (km) Brightness Sun altitude
Exits shadow 19:56:05 83° 303° (WNW) 633 3.5 -24.7°
Drops below altitude 10° 20:00:19 10° 343° (NNW) 2,000 7.0 -25.0°
Sets 20:02:31 0° 344° (NNW) 2,911 8.1 -25.2°
